This is the latest recevied weather packets stored in our database for station/object N0MPM-4. If no packets are shown the sender has not sent any weather packets the latest 10 day(s).
| Time | Temp. | Humidity | Pressure | Rain* | Wind** | Luminosity | Snow |
|---|---|---|---|---|---|---|---|
| 1787499203 | 22.78° C | 71% | 1020.4 hPa | 0 mm | - | - | - |
| 1787498903 | 22.78° C | 65% | 1020.4 hPa | 0 mm | - | - | - |
| 1787498603 | 23.33° C | 65% | 1020.4 hPa | 0 mm | - | - | - |
| 1787498544 | 23.33° C | 69% | 1020.3 hPa | 0 mm | - | - | - |
| 1787498303 | 22.22° C | 71% | 1020.3 hPa | 0 mm | - | - | - |
| 1787498184 | 22.22° C | 72% | 1020.3 hPa | 0 mm | - | - | - |
| 1787498003 | 21.67° C | 73% | 1020.4 hPa | 0 mm | - | - | - |
| 1787497824 | 21.11° C | 72% | 1020.3 hPa | 0 mm | - | - | - |
| 1787497703 | 21.11° C | 73% | 1020.3 hPa | 0 mm | - | - | - |
| 1787497547 | 21.11° C | 76% | 1020.4 hPa | 0 mm | - | - | - |
| 1787497464 | 21.11° C | 76% | 1020.4 hPa | 0 mm | - | - | - |
| 1787497403 | 20.56° C | 76% | 1020.4 hPa | 0 mm | - | - | - |
| 1787497236 | 20.56° C | 75% | 1020.2 hPa | 0 mm | - | - | - |
| 1787497103 | 20.56° C | 75% | 1020.2 hPa | 0 mm | - | - | - |
| 1787496818 | 20° C | 77% | 1020.3 hPa | 0 mm | - | - | - |
| 1787496803 | 20° C | 77% | 1020.3 hPa | 0 mm | - | - | - |
| 1787496744 | 20° C | 77% | 1020.3 hPa | 0 mm | - | - | - |
| 1787496503 | 20° C | 77% | 1020.3 hPa | 0 mm | - | - | - |
| 1787496476 | 19.44° C | 76% | 1020.4 hPa | 0 mm | - | - | - |
| 1787496385 | 19.44° C | 76% | 1020.4 hPa | 0 mm | - | - | - |
| 1787496203 | 19.44° C | 77% | 1020.3 hPa | 0 mm | - | - | - |
| 1787496025 | 19.44° C | 75% | 1020.3 hPa | 0 mm | - | - | - |
| 1787495903 | 19.44° C | 76% | 1020.3 hPa | 0 mm | - | - | - |
| 1787495665 | 20° C | 74% | 1020.3 hPa | 0 mm | - | - | - |
| 1787495603 | 20° C | 74% | 1020.3 hPa | 0 mm | - | - | - |
* Rain latest hour (hover to see other rain measurements)
** Current wind speed in m/s (hover to see current wind gust speed)